EW8714 Weather Reports


Display with metric or nautical units.
time (UTC)temp
F
wind
direction
speed
MPH
gust
MPH
rain 1hr
in
rain 24hr
in
rain mn
in
humidity
%
barometer
mb
20260905182515 88 79 1.0 8.0 0.00 0.00 0.00 23 1018.7
20260905182012 89 90 3.0 8.0 0.00 0.00 0.00 23 1018.9
20260905181517 89 46 4.0 12.0 0.00 0.00 0.00 23 1018.9
20260905181017 89 34 3.0 12.0 0.00 0.00 0.00 23 1019.0
20260905180516 89 92 4.0 9.0 0.00 0.00 0.00 24 1019.0
20260905180013 88 105 5.0 9.0 0.00 0.00 0.00 23 1019.1
20260905175512 88 87 1.0 5.0 0.00 0.00 0.00 24 1019.2
20260905175011 88 86 1.0 5.0 0.00 0.00 0.00 25 1019.2
20260905174515 87 62 2.0 6.0 0.00 0.00 0.00 26 1019.2
20260905174012 86 56 2.0 8.0 0.00 0.00 0.00 26 1019.3
20260905173512 85 46 3.0 8.0 0.00 0.00 0.00 28 1019.3
20260905173017 85 95 2.0 6.0 0.00 0.00 0.00 30 1019.2
20260905172515 86 101 2.0 5.0 0.00 0.00 0.00 28 1019.1
20260905172017 84 102 3.0 5.0 0.00 0.00 0.00 29 1019.2
20260905171520 85 101 2.0 5.0 0.00 0.00 0.00 28 1019.3
20260905171016 85 97 2.0 6.0 0.00 0.00 0.00 28 1019.2
20260905170516 85 98 2.0 6.0 0.00 0.00 0.00 28 1019.2
20260905170016 84 88 3.0 5.0 0.00 0.00 0.00 28 1019.2
20260905165514 84 87 2.0 7.0 0.00 0.00 0.00 30 1019.2
20260905165015 83 101 4.0 7.0 0.00 0.00 0.00 30 1019.3
20260905164604 83 86 2.0 5.0 0.00 0.00 0.00 32 1019.3
20260905164057 83 86 1.0 5.0 0.00 0.00 0.00 31 1019.4
20260905163556 83 94 2.0 5.0 0.00 0.00 0.00 30 1019.3
20260905163010 82 86 3.0 5.0 0.00 0.00 0.00 32 1019.3
20260905162508 82 83 2.0 5.0 0.00 0.00 0.00 34 1019.2
20260905162007 81 90 3.0 6.0 0.00 0.00 0.00 32 1019.2
20260905161508 81 94 3.0 7.0 0.00 0.00 0.00 34 1019.3
20260905161008 81 91 3.0 7.0 0.00 0.00 0.00 34 1019.2
20260905160508 81 68 1.0 6.0 0.00 0.00 0.00 33 1019.2
20260905160009 80 77 2.0 6.0 0.00 0.00 0.00 36 1019.2
20260905155508 80 75 2.0 6.0 0.00 0.00 0.00 34 1019.2
20260905155008 80 76 3.0 6.0 0.00 0.00 0.00 33 1019.2
20260905154509 79 85 2.0 5.0 0.00 0.00 0.00 38 1019.3
20260905154005 78 84 0.0 4.0 0.00 0.00 0.00 35 1019.2
20260905153505 78 84 2.0 6.0 0.00 0.00 0.00 35 1019.3
20260905153012 78 82 2.0 6.0 0.00 0.00 0.00 36 1019.3
20260905152507 78 104 2.0 5.0 0.00 0.00 0.00 37 1019.3
20260905152007 79 131 2.0 5.0 0.00 0.00 0.00 36 1019.3
20260905151514 79 146 2.0 4.0 0.00 0.00 0.00 36 1019.3
20260905151008 79 147 1.0 4.0 0.00 0.00 0.00 34 1019.3
20260905150511 78 148 0.0 4.0 0.00 0.00 0.00 34 1019.2
20260905150026 78 148 1.0 4.0 0.00 0.00 0.00 36 1019.2
20260905145526 78 148 2.0 4.0 0.00 0.00 0.00 37 1019.2
20260905145025 79 217 1.0 3.0 0.00 0.00 0.00 36 1019.1
20260905144517 78 218 1.0 3.0 0.00 0.00 0.00 35 1019.1
20260905144009 78 220 0.0 3.0 0.00 0.00 0.00 34 1019.2
20260905143508 77 220 0.0 3.0 0.00 0.00 0.00 35 1019.2
20260905143008 77 222 1.0 2.0 0.00 0.00 0.00 35 1019.1
20260905142504 75 222 0.0 1.0 0.00 0.00 0.00 38 1019.0
20260905142004 74 222 0.0 2.0 0.00 0.00 0.00 37 1019.0
20260905141510 74 222 0.0 2.0 0.00 0.00 0.00 39 1019.0
20260905141011 73 223 0.0 1.0 0.00 0.00 0.00 41 1018.9
20260905140509 72 223 0.0 1.0 0.00 0.00 0.00 39 1018.8
20260905140009 72 223 0.0 1.0 0.00 0.00 0.00 41 1018.8
20260905135507 71 223 0.0 2.0 0.00 0.00 0.00 43 1018.8
20260905135008 70 223 0.0 2.0 0.00 0.00 0.00 49 1018.8
20260905134510 70 222 0.0 1.0 0.00 0.00 0.00 46 1018.7
20260905134006 69 214 0.0 2.0 0.00 0.00 0.00 49 1018.7
20260905133506 68 214 0.0 3.0 0.00 0.00 0.00 50 1018.7
20260905133011 67 214 0.0 3.0 0.00 0.00 0.00 51 1018.7
20260905132509 66 214 2.0 3.0 0.00 0.00 0.00 51 1018.6
20260905132009 65 214 0.0 2.0 0.00 0.00 0.00 54 1018.7
20260905131509 64 214 0.0 3.0 0.00 0.00 0.00 54 1018.6
20260905131009 64 214 1.0 3.0 0.00 0.00 0.00 54 1018.6
20260905130508 63 231 1.0 2.0 0.00 0.00 0.00 54 1018.5
20260905130009 63 231 0.0 2.0 0.00 0.00 0.00 54 1018.5
20260905125508 63 231 0.0 0.0 0.00 0.00 0.00 55 1018.3
20260905125008 62 231 0.0 3.0 0.00 0.00 0.00 55 1018.2
20260905124515 62 231 0.0 3.0 0.00 0.00 0.00 55 1018.2
20260905124009 62 231 2.0 3.0 0.00 0.00 0.00 55 1018.2
20260905123511 62 231 1.0 2.0 0.00 0.00 0.00 55 1018.2
20260905123009 61 231 0.0 1.0 0.00 0.00 0.00 56 1018.1
20260905122509 62 231 0.0 2.0 0.00 0.00 0.00 55 1018.1
20260905122009 62 231 0.0 2.0 0.00 0.00 0.00 54 1018.1
20260905121514 62 231 0.0 1.0 0.00 0.00 0.00 54 1018.1
20260905121017 63 231 0.0 1.0 0.00 0.00 0.00 53 1018.2
20260905120515 63 231 0.0 0.0 0.00 0.00 0.00 53 1018.2
20260905120012 63 231 0.0 0.0 0.00 0.00 0.00 53 1018.0
20260905115511 64 231 0.0 0.0 0.00 0.00 0.00 51 1017.9
20260905115011 64 231 0.0 2.0 0.00 0.00 0.00 51 1017.9
20260905114515 64 231 0.0 3.0 0.00 0.00 0.00 51 1017.9
20260905114010 64 231 1.0 3.0 0.00 0.00 0.00 51 1017.9
20260905113510 64 231 0.0 3.0 0.00 0.00 0.00 52 1017.9
20260905113015 63 231 0.0 3.0 0.00 0.00 0.00 52 1017.9
20260905112515 63 231 0.0 2.0 0.00 0.00 0.00 54 1017.9
20260905112014 63 231 0.0 2.0 0.00 0.00 0.00 55 1017.8
20260905111514 63 231 0.0 2.0 0.00 0.00 0.00 56 1017.8
20260905111013 63 231 1.0 2.0 0.00 0.00 0.00 57 1017.8
20260905110512 63 231 0.0 0.0 0.00 0.00 0.00 57 1017.8
20260905110017 63 231 0.0 0.0 0.00 0.00 0.00 57 1017.8
20260905105519 64 231 0.0 1.0 0.00 0.00 0.00 56 1017.7
20260905105016 64 231 0.0 2.0 0.00 0.00 0.00 56 1017.7
20260905104516 63 231 1.0 3.0 0.00 0.00 0.00 57 1017.7
20260905104019 63 231 1.0 3.0 0.00 0.00 0.00 58 1017.7
20260905103515 62 231 1.0 3.0 0.00 0.00 0.00 60 1017.7
20260905103016 62 231 0.0 2.0 0.00 0.00 0.00 59 1017.7
20260905102517 62 231 0.0 1.0 0.00 0.00 0.00 59 1017.8
20260905102014 62 231 0.0 0.0 0.00 0.00 0.00 59 1017.7
20260905101521 62 231 0.0 0.0 0.00 0.00 0.00 58 1017.8
20260905101019 62 231 0.0 0.0 0.00 0.00 0.00 59 1017.8
20260905100519 63 231 0.0 0.0 0.00 0.00 0.00 58 1017.7
20260905100017 63 231 0.0 0.0 0.00 0.00 0.00 56 1017.7
20260905095516 64 231 0.0 0.0 0.00 0.00 0.00 56 1017.7
20260905095019 64 231 0.0 2.0 0.00 0.00 0.00 55 1017.7
20260905094519 64 231 0.0 2.0 0.00 0.00 0.00 54 1017.7
20260905094016 65 231 1.0 2.0 0.00 0.00 0.00 52 1017.5
20260905093515 67 231 0.0 2.0 0.00 0.00 0.00 49 1017.5
20260905093017 67 231 0.0 2.0 0.00 0.00 0.00 49 1017.5
20260905092515 67 231 0.0 3.0 0.00 0.00 0.00 49 1017.5
20260905092018 67 231 1.0 3.0 0.00 0.00 0.00 48 1017.5
20260905091515 67 231 0.0 4.0 0.00 0.00 0.00 48 1017.5
20260905091014 68 231 1.0 4.0 0.00 0.00 0.00 47 1017.4
20260905090514 68 233 1.0 3.0 0.00 0.00 0.00 46 1017.3
20260905090024 68 235 0.0 0.0 0.00 0.00 0.00 46 1017.2
20260905085517 69 235 0.0 0.0 0.00 0.00 0.00 44 1017.1
20260905085017 69 235 0.0 2.0 0.00 0.00 0.00 43 1017.0
20260905084516 69 235 0.0 4.0 0.00 0.00 0.00 43 1017.0
20260905084016 70 235 2.0 7.0 0.00 0.00 0.00 42 1017.0
20260905083515 70 235 3.0 8.0 0.00 0.00 0.00 42 1016.9
20260905083014 69 240 4.0 8.0 0.00 0.00 0.00 43 1017.0
20260905082514 69 223 3.0 8.0 0.00 0.00 0.00 45 1016.9
20260905082016 69 221 5.0 8.0 0.00 0.00 0.00 46 1016.9
20260905081519 69 214 4.0 8.0 0.00 0.00 0.00 46 1017.0
20260905081018 69 210 5.0 8.0 0.00 0.00 0.00 46 1017.0
20260905080518 69 198 4.0 6.0 0.00 0.00 0.00 47 1016.9
20260905080019 68 197 4.0 6.0 0.00 0.00 0.00 47 1017.0
20260905075518 67 203 3.0 5.0 0.00 0.00 0.00 49 1017.0
20260905075017 68 203 2.0 4.0 0.00 0.00 0.00 49 1016.9
20260905074525 69 203 2.0 5.0 0.00 0.00 0.00 48 1017.0
20260905074022 68 203 3.0 6.0 0.00 0.00 0.00 49 1017.1
20260905073528 68 201 4.0 6.0 0.00 0.00 0.00 50 1017.1
20260905073023 68 179 3.0 5.0 0.00 0.00 0.00 50 1017.0
20260905072522 69 161 2.0 4.0 0.00 0.00 0.00 49 1017.0
20260905072025 69 160 1.0 3.0 0.00 0.00 0.00 48 1017.0
20260905071519 70 160 1.0 3.0 0.00 0.00 0.00 48 1017.2
20260905071018 70 160 2.0 3.0 0.00 0.00 0.00 48 1017.1
20260905070517 70 160 1.0 2.0 0.00 0.00 0.00 48 1017.1
20260905070024 69 160 0.0 2.0 0.00 0.00 0.00 49 1017.1
20260905065523 70 160 0.0 2.0 0.00 0.00 0.00 49 1017.0
20260905065020 71 160 0.0 0.0 0.00 0.00 0.00 47 1017.0
20260905064523 71 160 0.0 2.0 0.00 0.00 0.00 47 1016.9
20260905064024 71 160 0.0 3.0 0.00 0.00 0.00 46 1016.8
20260905063522 71 160 1.0 5.0 0.00 0.00 0.00 46 1016.8
20260905063023 72 160 3.0 5.0 0.00 0.00 0.00 45 1016.8
20260905062521 74 156 0.0 2.0 0.00 0.00 0.00 45 1016.7
20260905062020 74 156 0.0 3.0 0.00 0.00 0.00 44 1016.8
20260905061534 74 156 0.0 4.0 0.00 0.00 0.00 43 1016.8
20260905061021 75 157 1.0 4.0 0.00 0.00 0.00 42 1016.8
20260905060521 75 157 0.0 5.0 0.00 0.00 0.00 42 1016.7
20260905060022 75 160 1.0 5.0 0.00 0.00 0.00 42 1016.6
20260905055526 75 136 2.0 5.0 0.00 0.00 0.00 42 1016.6
20260905055021 75 110 1.0 5.0 0.00 0.00 0.00 42 1016.7
20260905054531 74 108 1.0 5.0 0.00 0.00 0.00 43 1016.6
20260905054024 73 86 2.0 4.0 0.00 0.00 0.00 44 1016.6
20260905053524 73 70 1.0 4.0 0.00 0.00 0.00 44 1016.6
20260905053024 74 69 2.0 4.0 0.00 0.00 0.00 43 1016.6
20260905052523 73 66 0.0 3.0 0.00 0.00 0.00 42 1016.6
20260905052024 73 66 1.0 3.0 0.00 0.00 0.00 42 1016.6
20260905051507 73 66 0.0 2.0 0.00 0.00 0.00 42 1016.6
20260905051003 72 66 0.0 2.0 0.00 0.00 0.00 43 1016.7
20260905050503 72 66 0.0 0.0 0.00 0.00 0.00 42 1016.8
20260905050023 72 66 0.0 1.0 0.00 0.00 0.00 42 1016.7
20260905045527 72 66 0.0 1.0 0.00 0.00 0.00 42 1016.8
20260905045022 73 66 0.0 2.0 0.00 0.00 0.00 42 1016.7
20260905044528 72 66 0.0 2.0 0.00 0.00 0.00 41 1016.7
20260905044022 72 66 0.0 3.0 0.00 0.00 0.00 40 1016.8
20260905043522 71 66 0.0 3.0 0.00 0.00 0.00 41 1016.7
20260905043025 71 66 0.0 3.0 0.00 0.00 0.00 44 1016.8
20260905042529 71 66 0.0 2.0 0.00 0.00 0.00 45 1016.8
20260905042025 72 66 0.0 2.0 0.00 0.00 0.00 46 1016.6
20260905041536 74 66 0.0 2.0 0.00 0.00 0.00 41 1016.6
20260905041023 75 66 0.0 1.0 0.00 0.00 0.00 38 1016.6
20260905040524 76 66 0.0 1.0 0.00 0.00 0.00 37 1016.5
20260905040021 76 66 0.0 1.0 0.00 0.00 0.00 36 1016.5
20260905035520 76 66 0.0 0.0 0.00 0.00 0.00 35 1016.6
20260905035021 77 66 0.0 3.0 0.00 0.00 0.00 35 1016.7
20260905034524 78 66 0.0 4.0 0.00 0.00 0.00 34 1016.6
20260905034024 78 66 0.0 4.0 0.00 0.00 0.00 35 1016.7
20260905033522 79 66 0.0 5.0 0.00 0.00 0.00 36 1016.7
20260905033021 79 66 2.0 5.0 0.00 0.00 0.00 30 1016.6
20260905032520 80 66 2.0 5.0 0.00 0.00 0.00 30 1016.6
20260905032021 80 66 1.0 4.0 0.00 0.00 0.00 30 1016.6
20260905031519 80 67 1.0 5.0 0.00 0.00 0.00 29 1016.6
20260905031019 80 67 1.0 5.0 0.00 0.00 0.00 29 1016.6
20260905030519 80 68 2.0 5.0 0.00 0.00 0.00 29 1016.5
20260905030022 80 68 2.0 6.0 0.00 0.00 0.00 28 1016.6
20260905025621 80 70 3.0 6.0 0.00 0.00 0.00 28 1016.5
20260905025021 80 95 0.0 4.0 0.00 0.00 0.00 29 1016.5
20260905024527 80 95 1.0 4.0 0.00 0.00 0.00 31 1016.4
20260905024019 80 95 3.0 4.0 0.00 0.00 0.00 29 1016.3
20260905023518 81 96 2.0 4.0 0.00 0.00 0.00 29 1016.3
20260905023021 81 96 1.0 3.0 0.00 0.00 0.00 29 1016.1
20260905022521 81 95 0.0 3.0 0.00 0.00 0.00 29 1016.0
20260905022023 82 95 1.0 3.0 0.00 0.00 0.00 29 1016.0
20260905021530 82 95 0.0 2.0 0.00 0.00 0.00 28 1016.0
20260905021021 82 95 0.0 2.0 0.00 0.00 0.00 28 1015.8
20260905020521 82 95 1.0 2.0 0.00 0.00 0.00 28 1015.8
20260905020021 81 96 0.0 1.0 0.00 0.00 0.00 29 1015.8
20260905015523 81 96 0.0 2.0 0.00 0.00 0.00 29 1015.8
20260905015020 81 96 0.0 2.0 0.00 0.00 0.00 30 1015.7
20260905014524 81 95 0.0 3.0 0.00 0.00 0.00 31 1015.7
20260905014025 82 95 1.0 4.0 0.00 0.00 0.00 32 1015.7
20260905013525 83 95 2.0 4.0 0.00 0.00 0.00 31 1015.6
20260905013021 84 94 2.0 6.0 0.00 0.00 0.00 27 1015.6
20260905012520 84 95 2.0 6.0 0.00 0.00 0.00 27 1015.6
20260905012021 84 94 3.0 6.0 0.00 0.00 0.00 26 1015.5
20260905011523 85 94 2.0 8.0 0.00 0.00 0.00 26 1015.5
20260905011024 85 90 3.0 8.0 0.00 0.00 0.00 26 1015.4
20260905010523 86 98 4.0 9.0 0.00 0.00 0.00 26 1015.5
20260905010023 86 98 5.0 9.0 0.00 0.00 0.00 25 1015.4
20260905005525 86 96 5.0 8.0 0.00 0.00 0.00 25 1015.4
20260905005024 87 87 4.0 9.0 0.00 0.00 0.00 25 1015.4
20260905004523 88 99 4.0 9.0 0.00 0.00 0.00 24 1015.4
20260905004023 88 96 4.0 9.0 0.00 0.00 0.00 23 1015.4
20260905003526 88 104 5.0 11.0 0.00 0.00 0.00 22 1015.5
20260905003006 89 110 6.0 11.0 0.00 0.00 0.00 22 1015.4
20260905002506 89 108 6.0 9.0 0.00 0.00 0.00 22 1015.4
20260905002006 89 92 5.0 9.0 0.00 0.00 0.00 23 1015.3
20260905001506 89 90 5.0 11.0 0.00 0.00 0.00 22 1015.3
20260905001005 89 94 6.0 11.0 0.00 0.00 0.00 22 1015.2
20260905000506 90 93 5.0 11.0 0.00 0.00 0.00 23 1015.2
20260905000008 90 104 5.0 11.0 0.00 0.00 0.00 22 1015.3
20260904235509 90 94 3.0 13.0 0.00 0.00 0.00 21 1015.2
20260904235011 90 98 4.0 13.0 0.00 0.00 0.00 22 1015.2
20260904234507 90 86 6.0 11.0 0.00 0.00 0.00 21 1015.1
20260904234011 90 105 5.0 11.0 0.00 0.00 0.00 20 1015.0
20260904233507 90 91 5.0 11.0 0.00 0.00 0.00 20 1015.1
20260904233006 90 103 5.0 10.0 0.00 0.00 0.00 21 1015.1
20260904232507 91 94 6.0 10.0 0.00 0.00 0.00 20 1015.0
20260904232005 91 98 4.0 11.0 0.00 0.00 0.00 21 1015.1
20260904231513 91 101 7.0 11.0 0.00 0.00 0.00 20 1014.9
20260904231015 91 92 7.0 10.0 0.00 0.00 0.00 21 1015.0
20260904230508 91 110 6.0 10.0 0.00 0.00 0.00 20 1015.1
20260904230027 91 89 4.0 11.0 0.00 0.00 0.00 21 1015.1
20260904225528 91 102 5.0 14.0 0.00 0.00 0.00 19 1015.1
20260904225026 91 102 8.0 14.0 0.00 0.00 0.00 19 1015.0
20260904224505 91 92 6.0 10.0 0.00 0.00 0.00 19 1015.0
20260904224004 92 96 4.0 14.0 0.00 0.00 0.00 19 1014.9
20260904223503 92 103 8.0 14.0 0.00 0.00 0.00 17 1015.0
20260904223006 93 131 5.0 10.0 0.00 0.00 0.00 17 1014.9
20260904222504 93 89 1.0 9.0 0.00 0.00 0.00 18 1014.9
20260904222006 92 78 4.0 9.0 0.00 0.00 0.00 17 1015.0
20260904221505 92 94 5.0 13.0 0.00 0.00 0.00 17 1015.0
20260904221005 92 118 8.0 13.0 0.00 0.00 0.00 17 1015.0
20260904220508 93 108 7.0 11.0 0.00 0.00 0.00 16 1015.0
20260904220009 94 107 2.0 11.0 0.00 0.00 0.00 16 1015.1
20260904215508 93 103 4.0 11.0 0.00 0.00 0.00 14 1015.0
20260904215007 93 136 3.0 8.0 0.00 0.00 0.00 15 1015.1
20260904214507 93 111 3.0 8.0 0.00 0.00 0.00 18 1015.1
20260904214011 92 98 4.0 8.0 0.00 0.00 0.00 17 1015.1
20260904213506 92 96 4.0 8.0 0.00 0.00 0.00 15 1015.2
20260904213034 92 89 5.0 8.0 0.00 0.00 0.00 16 1015.2
20260904212527 93 117 2.0 12.0 0.00 0.00 0.00 15 1015.3
20260904212027 92 108 3.0 12.0 0.00 0.00 0.00 16 1015.3
20260904211507 92 103 4.0 8.0 0.00 0.00 0.00 16 1015.4
20260904211007 91 107 5.0 13.0 0.00 0.00 0.00 16 1015.5
20260904210507 90 102 6.0 13.0 0.00 0.00 0.00 18 1015.5
20260904210013 92 99 6.0 10.0 0.00 0.00 0.00 16 1015.7
20260904205507 91 92 5.0 12.0 0.00 0.00 0.00 20 1015.7
20260904205005 91 110 6.0 14.0 0.00 0.00 0.00 18 1015.8
20260904204516 92 96 5.0 14.0 0.00 0.00 0.00 18 1016.0
20260904204010 92 110 4.0 9.0 0.00 0.00 0.00 19 1015.9
20260904203509 92 77 3.0 10.0 0.00 0.00 0.00 20 1016.1
20260904203013 91 55 6.0 14.0 0.00 0.00 0.00 20 1016.2
20260904202512 91 113 6.0 14.0 0.00 0.00 0.00 20 1016.2
20260904202008 92 88 8.0 14.0 0.00 0.00 0.00 18 1016.3
20260904201505 92 131 2.0 11.0 0.00 0.00 0.00 18 1016.4
20260904201004 91 160 5.0 11.0 0.00 0.00 0.00 18 1016.4
20260904200504 90 91 5.0 12.0 0.00 0.00 0.00 20 1016.5
20260904200009 90 96 5.0 13.0 0.00 0.00 0.00 19 1016.6
20260904195510 90 88 5.0 15.0 0.00 0.00 0.00 19 1016.6
20260904195008 90 110 8.0 15.0 0.00 0.00 0.00 20 1016.6
20260904194509 90 117 6.0 11.0 0.00 0.00 0.00 19 1016.6
20260904194008 91 116 3.0 10.0 0.00 0.00 0.00 18 1016.7
20260904193509 90 95 4.0 11.0 0.00 0.00 0.00 18 1016.6
20260904193010 90 90 4.0 13.0 0.00 0.00 0.00 17 1016.8
20260904192506 89 88 5.0 13.0 0.00 0.00 0.00 18 1016.8
20260904192009 90 105 6.0 11.0 0.00 0.00 0.00 15 1016.8
20260904191507 90 100 4.0 11.0 0.00 0.00 0.00 16 1016.8
20260904191007 89 101 2.0 11.0 0.00 0.00 0.00 17 1016.9
20260904190507 90 97 7.0 11.0 0.00 0.00 0.00 17 1016.8
20260904190007 89 111 4.0 10.0 0.00 0.00 0.00 17 1017.0
20260904185507 89 89 6.0 10.0 0.00 0.00 0.00 20 1017.1
20260904185009 90 86 5.0 10.0 0.00 0.00 0.00 20 1017.2
20260904184520 90 154 2.0 9.0 0.00 0.00 0.00 18 1017.3
20260904184010 90 174 4.0 9.0 0.00 0.00 0.00 20 1017.3
20260904183512 89 129 2.0 9.0 0.00 0.00 0.00 19 1017.3
20260904183010 89 130 4.0 9.0 0.00 0.00 0.00 19 1017.3